Home   Weather   Cairo   Past weeks
Flag for Egypt

Past Weather in Cairo, Egypt — Yesterday and Last 2 Weeks

Now
46 °F

Sandstorm.


Feels Like: 40 °F
Forecast: 65 / 45 °F
Wind: 16 mph from South

Location: Cairo Airport

Current Time: Jan 17, 2019 at 9:01:51 am

Latest Report: Jan 17, 2019 at 8:00 am


Visibility: 1 mi

Pressure: 30.21 "Hg

Humidity: 62%

Dew Point: 34 °F

Location of CairoLocation

Past Weather in Cairo — Graph

°F

Cairo Temperature Yesterday

Maximum temperature yesterday: 59 °F (at 11:30 am)
Minimum temperature yesterday: 48 °F (at 7:00 am)
Average temperature yesterday: 52 °F

High & Low Weather Summary for the Past Weeks

 TemperatureHumidityPressure
High68 °F (Jan 12, 1:30 pm)76% (Jan 11, 5:00 am)30.27 "Hg (Jan 11, 5:00 am)
Low45 °F (Jan 7, 6:30 am)15% (Jan 13, 12:00 am)29.74 "Hg (Jan 12, 11:00 pm)
Average55 °F47%30.06 "Hg
* Reported Jan 2 8:00 am — Jan 17 8:00 am, Cairo. Weather by CustomWeather, © 2019

Note: Actual official high and low records may vary slightly from our data, if they occured in-between our weather recording intervals... More about our weather records

Advertising

Cairo Weather History for the Previous 24 Hours

Scroll right to see more
 ConditionsComfort  
Time TempWeatherWind HumidityBarometerVisibility
8:00 am
Thu, Jan 17
46 °FSandstorm.16 mph62%30.21 "Hg1 mi
7:30 am45 °FSandstorm.17 mph66%30.18 "Hg1 mi
7:00 am45 °FSandstorm.17 mph66%30.18 "Hg2 mi
6:30 am45 °FClear.14 mph66%30.18 "Hg4 mi
6:00 am46 °FClear.10 mph62%30.18 "Hg10 mi
5:30 am48 °FClear.7 mph62%30.18 "Hg10 mi
5:00 am48 °FClear.7 mph62%30.18 "Hg10 mi
4:30 am48 °FClear.9 mph62%30.15 "Hg10 mi
4:00 am48 °FClear.9 mph62%30.15 "Hg10 mi
3:30 am48 °FClear.10 mph62%30.18 "Hg10 mi
3:00 am48 °FClear.10 mph62%30.18 "Hg10 mi
2:30 am48 °FClear.10 mph62%30.18 "Hg10 mi
2:00 am46 °FClear.8 mph71%30.18 "Hg10 mi
1:30 am46 °FClear.10 mph66%30.15 "Hg10 mi
1:00 am46 °FClear.12 mph66%30.15 "Hg10 mi
12:30 am46 °FClear.12 mph66%30.15 "Hg10 mi
12:00 am48 °FClear.13 mph66%30.15 "Hg10 mi
11:30 pm
Wed, Jan 16
48 °FPartly cloudy.13 mph66%30.15 "HgN/A
11:00 pm48 °FPartly cloudy.13 mph66%30.15 "HgN/A
10:30 pm48 °FPartly cloudy.13 mph62%30.15 "HgN/A
10:00 pm48 °FPartly cloudy.14 mph66%30.15 "HgN/A
9:30 pm48 °FPartly cloudy.15 mph66%30.12 "HgN/A
9:00 pm48 °FPartly cloudy.17 mph66%30.12 "HgN/A
8:30 pm48 °FPartly cloudy.17 mph66%30.12 "HgN/A
8:00 pm50 °FPartly cloudy.20 mph62%30.09 "HgN/A
7:30 pm50 °FPartly cloudy.20 mph62%30.09 "HgN/A
6:30 pm50 °FPartly cloudy.20 mph54%30.04 "Hg4 mi
6:00 pm50 °FPartly cloudy.18 mph54%30.04 "Hg4 mi
5:30 pm50 °FSandstorm.24 mph54%30.01 "Hg2 mi
5:00 pm52 °FSandstorm.22 mph50%30.01 "Hg2 mi
4:30 pm52 °FSandstorm.24 mph50%29.98 "Hg1 mi
4:00 pm52 °FBroken clouds.31 mph47%29.98 "Hg0 mi
3:30 pm55 °FSandstorm.29 mph33%29.95 "Hg0 mi
3:10 pm55 °FSandstorm.30 mph28%29.95 "Hg0 mi
2:30 pm57 °FSandstorm.31 mph33%29.92 "Hg0 mi
2:00 pm57 °FSandstorm.33 mph33%29.92 "Hg0 mi
1:00 pm57 °FSandstorm.32 mph36%29.92 "Hg1 mi
12:30 pm57 °FSandstorm.30 mph39%29.92 "Hg1 mi
12:00 pm57 °FRefreshingly cool.31 mph44%29.92 "Hg1 mi
11:30 am59 °FSandstorm.28 mph42%29.95 "Hg1 mi
11:00 am57 °FSandstorm.26 mph44%29.95 "Hg1 mi
10:00 am54 °FSandstorm.18 mph54%29.95 "Hg2 mi
9:00 am52 °FSandstorm.21 mph50%29.95 "Hg2 mi
Weather by CustomWeather, © 2019

See weather overview